DW0314 Weather Reports


time (UTC)temp
F
wind
direction
speed
knots
gust
knots
rain 1hr
in
rain 24hr
in
rain mn
in
humidity
%
barometer
mb
20260906183052 94 153 0.0 4.3 0.00 0.00 0.00 55 1013.5
20260906181548 94 187 3.5 7.0 0.00 0.00 0.00 55 1013.7
20260906180104 94 109 0.9 6.1 0.00 0.00 0.00 56 1014.0
20260906174553 93 201 0.0 4.3 0.00 0.00 0.00 55 1014.4
20260906173039 92 204 0.9 5.2 0.00 0.00 0.00 58 1014.6
20260906171535 90 145 1.7 4.3 0.00 0.00 0.00 61 1014.8
20260906170033 91 150 0.9 6.1 0.00 0.00 0.00 60 1014.9
20260906164531 89 136 0.9 3.5 0.00 0.00 0.00 62 1015.1
20260906163029 88 172 1.7 3.5 0.00 0.00 0.00 65 1015.3
20260906161527 89 130 0.0 2.6 0.00 0.00 0.00 64 1015.1
20260906160028 89 132 0.0 1.7 0.00 0.00 0.00 63 1014.9
20260906154529 89 298 0.0 0.0 0.00 0.00 0.00 65 1014.8
20260906153031 88 149 0.0 1.7 0.00 0.00 0.00 67 1014.7
20260906151514 87 130 0.0 3.5 0.00 0.00 0.00 65 1014.7
20260906150020 87 124 1.7 6.1 0.00 0.00 0.00 65 1014.6
20260906144510 86 144 1.7 4.3 0.00 0.00 0.00 67 1014.6
20260906143012 85 92 0.9 4.3 0.00 0.00 0.00 69 1014.6
20260906141503 84 145 1.7 2.6 0.00 0.00 0.00 70 1014.8
20260906140058 82 207 0.0 0.9 0.00 0.00 0.00 77 1014.6
20260906134612 79 37 0.0 0.0 0.00 0.00 0.00 81 1014.5
20260906133055 77 37 0.0 0.0 0.00 0.00 0.00 83 1014.5
20260906131549 76 37 0.0 0.0 0.00 0.00 0.00 85 1014.7
20260906130048 75 30 0.0 0.0 0.00 0.00 0.00 87 1014.6
20260906124549 74 29 0.0 0.0 0.00 0.00 0.00 87 1014.3
20260906123053 74 35 0.0 0.0 0.00 0.00 0.00 86 1014.1
20260906121543 74 35 0.0 0.0 0.00 0.00 0.00 86 1013.9
20260906120036 74 35 0.0 0.0 0.00 0.00 0.00 86 1013.5
20260906114535 73 34 0.0 0.0 0.00 0.00 0.00 86 1013.4
20260906113035 73 34 0.0 0.0 0.00 0.00 0.00 86 1013.3
20260906111533 73 34 0.0 0.0 0.00 0.00 0.00 86 1013.3
20260906110032 74 35 0.0 0.0 0.00 0.00 0.00 86 1013.3
20260906104532 74 36 0.0 0.9 0.00 0.00 0.00 86 1013.3
20260906103030 74 35 0.0 0.9 0.00 0.00 0.00 85 1013.3
20260906101530 75 36 0.0 0.9 0.00 0.00 0.00 83 1013.2
20260906100030 75 25 0.0 1.7 0.00 0.00 0.00 83 1013.2
20260906094524 75 26 0.0 0.0 0.00 0.00 0.00 82 1013.3
20260906093035 76 16 0.0 0.0 0.00 0.00 0.00 81 1013.3
20260906091519 77 16 0.0 0.0 0.00 0.00 0.00 79 1013.3
20260906090036 78 116 0.0 0.0 0.00 0.00 0.00 77 1013.1
20260906084517 78 86 0.0 0.0 0.00 0.00 0.00 77 1013.1
20260906083017 78 101 0.0 0.0 0.00 0.00 0.00 78 1012.9
20260906081517 78 108 0.0 0.0 0.00 0.00 0.00 78 1012.9
20260906080014 78 108 0.0 0.0 0.00 0.00 0.00 79 1012.9
20260906074514 78 108 0.0 1.7 0.00 0.00 0.00 78 1012.7
20260906073013 78 108 0.0 0.0 0.00 0.00 0.00 79 1012.7
20260906071511 78 53 0.0 0.0 0.00 0.00 0.00 79 1012.8
20260906070010 79 53 0.0 0.0 0.00 0.00 0.00 77 1012.9
20260906064509 79 132 0.0 0.9 0.00 0.00 0.00 77 1012.9
20260906063008 79 114 0.0 0.0 0.00 0.00 0.00 77 1013.0
20260906061506 79 86 0.0 0.0 0.00 0.00 0.00 77 1013.0
20260906060005 79 65 0.0 1.7 0.00 0.00 0.00 78 1013.0
20260906054505 79 83 0.0 1.7 0.00 0.00 0.00 78 1012.8
20260906053003 78 40 0.0 2.6 0.00 0.00 0.00 79 1012.9
20260906051606 78 57 0.0 2.6 0.00 0.00 0.00 79 1013.0
20260906050107 78 52 0.0 0.0 0.00 0.00 0.00 79 1013.0
20260906044557 79 52 0.0 0.0 0.00 0.00 0.00 79 1012.9
20260906043103 79 53 0.0 0.0 0.00 0.00 0.00 78 1012.8
20260906041603 79 43 0.0 0.0 0.00 0.00 0.00 78 1012.7
20260906040056 80 79 0.0 0.0 0.00 0.00 0.00 78 1012.7
20260906034617 80 2 0.0 0.0 0.00 0.00 0.00 77 1012.6
20260906033055 80 18 0.0 0.0 0.00 0.00 0.00 77 1012.5
20260906031554 80 64 0.0 0.9 0.00 0.00 0.00 76 1012.3
20260906030054 81 2 0.0 0.0 0.00 0.00 0.00 74 1012.4
20260906024553 81 2 0.9 1.7 0.00 0.00 0.00 72 1012.2
20260906023053 82 2 0.9 1.7 0.00 0.00 0.00 70 1011.9
20260906021552 83 23 0.0 0.0 0.00 0.00 0.00 67 1011.6
20260906020059 84 23 0.0 0.0 0.00 0.00 0.00 64 1011.1
20260906014551 85 23 0.0 0.0 0.00 0.00 0.00 64 1011.3
20260906013103 86 45 0.0 0.0 0.00 0.00 0.00 62 1011.0
20260906011550 86 25 0.0 0.0 0.00 0.00 0.00 62 1010.9
20260906010052 87 52 0.0 0.0 0.00 0.00 0.00 61 1010.6
20260906004549 88 70 0.0 0.0 0.00 0.00 0.00 62 1010.8
20260906003049 89 71 0.0 0.0 0.00 0.00 0.00 62 1011.0
20260906001548 91 35 0.0 0.9 0.00 0.00 0.00 58 1010.7
20260906000055 92 104 0.0 2.6 0.00 0.00 0.00 55 1010.7
20260905234554 93 104 0.0 1.7 0.00 0.00 0.00 53 1010.8
20260905233047 94 109 0.0 2.6 0.00 0.00 0.00 52 1010.9
20260905231545 94 119 1.7 3.5 0.00 0.00 0.00 52 1011.0
20260905230046 94 140 0.9 3.5 0.00 0.00 0.00 52 1011.0
20260905224544 94 128 0.9 5.2 0.00 0.00 0.00 51 1010.8
20260905223049 95 125 0.9 5.2 0.00 0.00 0.00 50 1010.8
20260905221541 95 120 0.9 6.1 0.00 0.00 0.00 45 1011.0
20260905220040 96 138 3.5 7.8 0.00 0.00 0.00 47 1011.2
20260905214540 96 350 2.6 7.8 0.00 0.00 0.00 45 1011.2
20260905213038 97 129 4.3 8.7 0.00 0.00 0.00 44 1011.2
20260905211539 98 80 1.7 7.8 0.00 0.00 0.00 45 1011.3
20260905210046 97 180 5.2 9.6 0.00 0.00 0.00 46 1011.6
20260905204535 98 177 6.1 9.6 0.00 0.00 0.00 43 1011.8
20260905203032 98 124 3.5 13.0 0.00 0.00 0.00 43 1011.9
20260905201529 97 155 2.6 10.4 0.00 0.00 0.00 46 1012.2
20260905200028 97 92 1.7 7.8 0.00 0.00 0.00 46 1012.4
20260905194527 97 350 3.5 9.6 0.00 0.00 0.00 47 1012.5
20260905193025 97 3 1.7 10.4 0.00 0.00 0.00 47 1012.4
20260905191525 97 113 5.2 12.2 0.00 0.00 0.00 48 1012.5
20260905190022 96 124 2.6 11.3 0.00 0.00 0.00 47 1012.9
20260905184521 96 179 4.3 10.4 0.00 0.00 0.00 48 1012.8